Tracking 32420 objects as of 8-Dec-2025
HD Live streaming from Space Station
objects crossing your sky now

PEXT

Track PEXT now!
10-day predictions


NORAD ID: 64874
Int'l Code: 2025-154F
Perigee: 515.0 km
Apogee: 517.6 km
Inclination: 97.4 °
Period: 94.8 minutes
Semi major axis: 6887 km
RCS: Unknown
Launch date: July 23, 2025
Source: United States (US)
Launch site: AIR FORCE WESTERN TEST RANGE (AFWTR)
Your satellite tracking list
Your tracking list is empty




NASA's NSSDC Master Catalog

Two Line Element Set (TLE):
1 64874U 25154F   25342.16485939  .00005175  00000-0  25117-3 0  9994
2 64874  97.4232  45.6867 0001910 203.0002 157.1147 15.18906222 20837
Source of the keplerian elements: AFSPC